Location: Simi Valley
(34.2690°N, 118.7810°W)
Time: 05:09:46
(UTC-07:00)

SAR-Lupe-1 - Visible Passes

Search period start: 30 July 2015 00:00
Search period end: 09 August 2015 00:00
Orbit: 481 x 485 km, 98.1° (Epoch: 28 July)

Date Brightness Start Highest point End Pass type
(mag) Time Alt. Az. Time Alt. Az. Time Alt. Az.
30 Jul 4.4 04:53:56 10° NNE 04:57:31 67° E 05:01:05 10° S visible
31 Jul 5.9 04:29:36 10° NE 04:32:44 28° E 04:35:53 10° SSE visible
01 Aug 6.9 04:06:09 10° ENE 04:07:50 13° E 04:09:42 10° SE visible
02 Aug 4.1 05:13:05 10° N 05:16:39 64° WNW 05:20:12 10° SSW visible
03 Aug 4.8 04:48:26 10° NNE 04:51:57 51° E 04:55:26 10° S visible
04 Aug 6.3 04:24:16 10° NE 04:27:08 23° E 04:30:03 10° SSE visible
05 Aug 7.2 04:01:37 10° E 04:02:11 10° E 04:03:00 10° ESE visible
05 Aug 4.8 05:32:27 10° N 05:35:46 35° WNW 05:39:02 10° SW visible
06 Aug 4.0 05:07:31 10° N 05:11:06 83° WNW 05:14:41 10° SSW visible
07 Aug 5.3 04:42:58 10° NNE 04:46:22 40° E 04:49:46 10° S visible
08 Aug 6.7 04:19:01 10° NE 04:21:31 18° E 04:24:07 10° SE visible
